"Pseudo-MPEC" for P22pay3

Created 2026 Aug 13 11:35:34 UT using Find_Orb

Click here for an explanation of pseudo-MPECs

 
 Astrometry: 
     P22pay3*0C2026 08 11.52748500 25 13.054+00 28 57.28   ~8BEZ 20.49wXNEOCPF52
     P22pay3 0C2026 08 11.53643500 25 13.220+00 29 03.87   ~8BEZ 20.50wXNEOCPF52
     P22pay3 0C2026 08 11.54544000 25 13.381+00 29 10.44   ~8BEZ 20.62wXNEOCPF52
     P22pay3 0C2026 08 11.55449100 25 13.539+00 29 17.19   ~8BEZ 20.49wXNEOCPF52
     P22pay3 0C2026 08 11.62076400 25 14.701+00 30 05.99   ~8BKo 19.95GVNEOCPF52
     P22pay3 0C2026 08 11.62139700 25 14.713+00 30 06.46   ~8BKo 19.80GVNEOCPF52
     P22pay3 0B2026 08 11.99078500 25 22.922+00 34 35.87   ~8CD5 20.41GXNEOCPL34
     P22pay3 0B2026 08 12.01807900 25 23.410+00 34 56.17   ~8CD5       XNEOCPL34
     P22pay3 0B2026 08 12.05120100 25 23.983+00 35 20.65   ~8CD5 19.71GXNEOCPL34
     P22pay3 0B2026 08 12.07849000 25 24.439+00 35 40.02   ~8CD5 19.87GXNEOCPL34
     P22pay3 0B2026 08 13.03341400 25 43.063+00 47 20.62   ~8D9Z 19.7 GXNEOCPR54
     P22pay3 0B2026 08 13.04520800 25 43.222+00 47 29.26   ~8D9Z 19.8 GXNEOCPR54
     P22pay3 0B2026 08 13.05701400 25 43.442+00 47 37.82   ~8D9Z 19.9 GXNEOCPR54
     P22pay3 KC2026 08 13.34291600 25 48.45 +00 51 08.2    ~8D8o 20.3 GVNEOCPH21
     P22pay3 KC2026 08 13.34571500 25 48.48 +00 51 10.3    ~8D8o 20.5 GVNEOCPH21
     P22pay3 KC2026 08 13.34851200 25 48.51 +00 51 12.4    ~8D8o 20.7 GVNEOCPH21
     P22pay3 KC2026 08 13.35130900 25 48.56 +00 51 14.5    ~8D8o 20.4 GVNEOCPH21

Station data:
(F52) Pan-STARRS 2, Haleakala  (N20.707382 W156.255910)  US/Hawaii.
   Observers J. Herman, T. Lowe, P. Minguez, A. Schultz, I. Smith. Measurers
   K. Chambers, T. de Boer, J. Fairlamb, H. Gao, M. Huber, C.-C. Lin, E.
   Magnier, Y. Ramanjooloo, R. Wainscoat, R. Weryk. 1.8-m Ritchey-Chrétien +
   CCD.
(H21) Astronomical Research Observatory, Westfield  (N39.483054 W87.968270)
   US/Illinois.  Observer R. Holmes. Measurers S. Foglia, L. Buzzi, T.
   Linder, R. Holmes. 0.40-m f/5.32 astrograph + CCD.
(L34) Galhassin Robotic Telescope, Isnello  (N37.939358 E14.020610)  Italy.
   Observer A. Nastasi. 0.40-m reflector + CCD.
(R54) Petit Cosquet, Bangor  (N47.314413 W3.211500)  France.

Orbital elements:  P22pay3
   Perihelion 2026 Aug 15.176618 +/- 43.8 TT =  4:14:19.7 (JD 2461267.676618)
Epoch 2026 Aug 13.0 TT = JDT 2461265.5   Earth MOID: 0.7936   Ju: 0.4111
M 359.725690643 +/- 11              (J2000 ecliptic)             AutoNEOCP
n   0.126025496 +/- 0.0509          Peri.  355.603698 +/- 24
a   3.940008007 +/- 1.06            Node   347.635879 +/- 0.8
e   0.54275356 +/- 0.0795           Incl.   10.071404 +/- 1.0
P   7.82070                H 18.08  G  0.15   U 10.8  SR
q 1.801554627 +/- 0.115    Q 6.078461386 +/- 1.2
From 17 observations 2026 Aug. 11-13 (43.8 hr); mean residual 0".28
Residuals in arcseconds: 
260811 F52  .01-  .13+    260811 L34  .23+  .59-    260813 R54  .11+  .24-    
260811 F52  .08+  .11+    260812 L34  .27+  .40-    260813 H21  .18+  .20+    
260811 F52  .09+  .03+    260812 L34  .18+  .31-    260813 H21  .02+  .26+    
260811 F52  .05+  .09+    260812 L34  .05-  1.0-    260813 H21  .14-  .31+    
260811 F52  .15-  .04-    260813 R54  .09+  .17-    260813 H21  .01-  .37+    
260811 F52  .14-  .03-    260813 R54  .37-  .16-    

Ephemerides (geocentric):
Date (UTC) HH   RA             Dec           delta  r     elong  mag " sig PA
---- --------  ------------   ------------  ------ ------ -----  --- --------
2026 08 13 12  00 25 51.099   +00 53 08.43  .94318 1.8016 134.1 20.3 .914 173
2026 08 13 13  00 25 51.817   +00 53 38.82  .94294 1.8016 134.1 20.3 1.05 158
2026 08 13 14  00 25 52.532   +00 54 09.21  .94269 1.8016 134.2 20.3 1.20 152
2026 08 13 15  00 25 53.242   +00 54 39.59  .94245 1.8016 134.2 20.3 1.37 149
2026 08 13 16  00 25 53.950   +00 55 09.96  .94221 1.8016 134.2 20.3 1.54 147
2026 08 13 17  00 25 54.653   +00 55 40.32  .94196 1.8016 134.3 20.3 1.72 147
2026 08 13 18  00 25 55.353   +00 56 10.68  .94172 1.8016 134.3 20.3 1.91 146
2026 08 13 19  00 25 56.050   +00 56 41.02  .94148 1.8016 134.3 20.3 2.10 146
2026 08 13 20  00 25 56.742   +00 57 11.36  .94123 1.8016 134.4 20.3 2.29 146
2026 08 13 21  00 25 57.431   +00 57 41.69  .94099 1.8016 134.4 20.3 2.50 146
2026 08 13 22  00 25 58.116   +00 58 12.01  .94075 1.8016 134.4 20.3 2.71 145
2026 08 13 23  00 25 58.798   +00 58 42.32  .94051 1.8016 134.5 20.3 2.93 145
2026 08 14 00  00 25 59.476   +00 59 12.63  .94027 1.8016 134.5 20.3 3.15 145
2026 08 14 01  00 26 00.150   +00 59 42.92  .94003 1.8016 134.5 20.3 3.38 145
2026 08 14 02  00 26 00.821   +01 00 13.21  .93978 1.8016 134.6 20.3 3.61 146
2026 08 14 03  00 26 01.488   +01 00 43.49  .93954 1.8016 134.6 20.3 3.85 146
2026 08 14 04  00 26 02.151   +01 01 13.76  .93930 1.8016 134.6 20.3 4.10 146
2026 08 14 05  00 26 02.811   +01 01 44.03  .93906 1.8016 134.7 20.3 4.35 146
2026 08 14 06  00 26 03.467   +01 02 14.28  .93882 1.8016 134.7 20.3 4.61 146
2026 08 14 07  00 26 04.119   +01 02 44.53  .93858 1.8016 134.7 20.3 4.87 146
2026 08 14 08  00 26 04.768   +01 03 14.76  .93834 1.8016 134.8 20.3 5.14 146
2026 08 14 09  00 26 05.413   +01 03 44.99  .93810 1.8016 134.8 20.3 5.42 146
2026 08 14 10  00 26 06.054   +01 04 15.21  .93786 1.8016 134.8 20.3 5.70 146
2026 08 14 11  00 26 06.692   +01 04 45.43  .93762 1.8016 134.9 20.3 5.99 146
2026 08 14 12  00 26 07.326   +01 05 15.63  .93739 1.8016 134.9 20.3 6.28 146
2026 08 14 13  00 26 07.957   +01 05 45.83  .93715 1.8016 134.9 20.3 6.58 146
2026 08 14 14  00 26 08.583   +01 06 16.01  .93691 1.8016 135.0 20.3 6.89 146
2026 08 14 15  00 26 09.206   +01 06 46.19  .93667 1.8016 135.0 20.3 7.20 146
2026 08 14 16  00 26 09.826   +01 07 16.36  .93643 1.8016 135.1 20.3 7.51 146
2026 08 14 17  00 26 10.441   +01 07 46.53  .93620 1.8016 135.1 20.3 7.84 146
2026 08 14 18  00 26 11.053   +01 08 16.68  .93596 1.8016 135.1 20.3 8.17 146
2026 08 14 19  00 26 11.662   +01 08 46.82  .93572 1.8016 135.2 20.3 8.50 146
2026 08 14 20  00 26 12.266   +01 09 16.96  .93548 1.8016 135.2 20.3 8.84 147
2026 08 14 21  00 26 12.867   +01 09 47.09  .93525 1.8016 135.2 20.3 9.19 147
2026 08 14 22  00 26 13.465   +01 10 17.21  .93501 1.8016 135.3 20.3 9.54 147
2026 08 14 23  00 26 14.058   +01 10 47.32  .93478 1.8016 135.3 20.3 9.90 147
2026 08 15 00  00 26 14.649   +01 11 17.42  .93454 1.8016 135.3 20.3 10.3 147
2026 08 15 01  00 26 15.235   +01 11 47.52  .93430 1.8016 135.4 20.3 10.6 147
2026 08 15 02  00 26 15.818   +01 12 17.60  .93407 1.8016 135.4 20.3 11.0 147
2026 08 15 03  00 26 16.397   +01 12 47.68  .93383 1.8016 135.4 20.3 11.4 147
2026 08 15 04  00 26 16.972   +01 13 17.75  .93360 1.8016 135.5 20.3 11.8 147
2026 08 15 05  00 26 17.544   +01 13 47.81  .93336 1.8016 135.5 20.3 12.2 147
2026 08 15 06  00 26 18.112   +01 14 17.86  .93313 1.8016 135.5 20.3 12.6 147
2026 08 15 07  00 26 18.676   +01 14 47.90  .93289 1.8016 135.6 20.3 13.0 147
2026 08 15 08  00 26 19.237   +01 15 17.94  .93266 1.8016 135.6 20.3 13.4 147
2026 08 15 09  00 26 19.794   +01 15 47.96  .93243 1.8016 135.6 20.3 13.8 147
2026 08 15 10  00 26 20.347   +01 16 17.98  .93219 1.8016 135.7 20.3 14.2 147
2026 08 15 11  00 26 20.897   +01 16 47.99  .93196 1.8016 135.7 20.3 14.7 147